Hourly Data Report for October 04, 2017

All times are specified in Local Standard Time (LST). Add 1 hour to adjust for Daylight Saving Time where and when it is observed.

TORONTO INTL A
ONTARIO

43°40'36.000" N
79°37'50.000" W
173.40 m
6158731
71624
YYZ

Download Data

Hourly Data (October 2017)
Hourly Data Report for October 4, 2017
Temp Definition
°C
Dew Point Temp Definition
°C
Rel Hum Definition
%
Wind Dir Definition
10's deg

Wind Spd Definition
km/h
Visibility Definition
km
Stn Press Definition
kPa
Hmdx Definition


Wind Chill Definition


Weather Definition


TIME
00:00 Legend Double Dagger 20.7 10.3 51 21 13 24.1 100.54     LegendNANA
01:00 Legend Double Dagger 21.0 10.5 51 23 11 24.1 100.53     Mostly Cloudy
02:00 Legend Double Dagger 19.9 11.1 57 21 16 24.1 100.49     LegendNANA
03:00 Legend Double Dagger 20.5 11.4 55 20 16 24.1 100.42     LegendNANA
04:00 Legend Double Dagger 20.1 11.9 59 21 6 24.1 100.38     Mostly Cloudy
05:00 Legend Double Dagger 20.4 12.9 62 21 20 24.1 100.32     LegendNANA
06:00 Legend Double Dagger 20.4 13.8 65 22 16 24.1 100.32     LegendNANA
07:00 Legend Double Dagger 20.5 14.5 68 21 16 24.1 100.30     Mostly Cloudy
08:00 Legend Double Dagger 21.1 15.5 70 23 15 24.1 100.25 25   LegendNANA
09:00 Legend Double Dagger 22.1 17.4 74 23 29 24.1 100.19 28   LegendNANA
10:00 Legend Double Dagger 23.6 18.9 75 24 21 24.1 100.14 30   Mostly Cloudy
11:00 Legend Double Dagger 26.5 18.8 62 24 31 24.1 100.03 33   LegendNANA
12:00 Legend Double Dagger 21.1 19.3 89 23 25 24.1 99.99 28   Rain Showers
13:00 Legend Double Dagger 23.5 20.1 81 24 25 24.1 99.89 31   Mostly Cloudy
14:00 Legend Double Dagger 23.8 19.1 75 23 28 24.1 99.81 31   LegendNANA
15:00 Legend Double Dagger 24.2 19.1 73 24 37 24.1 99.74 31   LegendNANA
16:00 Legend Double Dagger 24.2 19.3 74 23 28 24.1 99.72 31   Mostly Cloudy
17:00 Legend Double Dagger 23.3 19.6 80 24 25 24.1 99.68 31   LegendNANA
18:00 Legend Double Dagger 20.1 17.0 82 33 33 24.1 99.79 25   LegendNANA
19:00 Legend Double Dagger 18.3 14.9 81 32 32 24.1 99.91     Mostly Cloudy
20:00 Legend Double Dagger 16.7 13.3 80 32 28 24.1 100.00     LegendNANA
21:00 Legend Double Dagger 15.9 12.1 78 32 23 24.1 100.01     LegendNANA
22:00 Legend Double Dagger 14.8 11.2 79 31 18 24.1 100.04     Clear
23:00 Legend Double Dagger 14.2 9.7 74 32 17 24.1 100.03     LegendNANA

Notes on Data Quality.

Legend

  • E = Estimated
  • M = Missing
  • NA = Not Available
  • ‡ = Partner data that is not subject to review by the National Climate Archives
Date modified: